Date String (YYYY-MM-DD hh:mm:ss) UTC,Instrument flags,absolute air pressure of the measurement (hPa),sample flow rate (lpm),inlet stack bypass flow (lpm),air temperature of the measurement (°C),ambient temperature measured by the external sensor (°C),aerosol sample conditioner tube jacket temperature (°C),OPC LED temperature (°C),internal box temperature (°C),relative humidity of the measurement (%),span deviation,mass concentration of particles derived from Lorenz-Mie calculation of OPC scattering (μg/m³),mass concentration of particles derived from Lorenz-Mie calculation of OPC scattering (μg/m³),mass concentration of particles derived from Lorenz-Mie calculation of OPC scattering (μg/m³)
DateTimeUTC,F1_M11,P_M11,Q1_M11,Q2_M11,T1_M11,T2_M11,T3_M11,T4_M11,T5_M11,U1_M11,ZSPAN_M11,X2_M11,X0_M11,X1_M11
2024-05-22 05:00:00,SystemResetWarning,0829.5,5.01,000.00,026.6,025.8,000.0,034.9,028.4,009.9,0000.0,0001.82,0002.26,0001.59
2024-05-22 05:01:00,SystemResetWarning,0829.5,5.00,000.00,026.6,025.8,000.0,034.9,028.4,009.8,0000.0,0001.84,0002.36,0001.60
2024-05-22 05:02:00,SystemResetWarning,0829.6,5.00,000.00,026.6,025.8,000.0,034.9,028.4,009.8,0000.0,0001.86,0002.54,0001.58
2024-05-22 05:03:00,SystemResetWarning,0829.6,4.99,000.00,026.6,025.8,000.0,034.9,028.4,009.8,0000.0,0001.86,0002.53,0001.57
2024-05-22 05:04:00,SystemResetWarning,0829.5,4.99,000.00,026.6,025.8,000.0,034.9,028.4,009.8,0000.0,0001.90,0003.22,0001.58
2024-05-22 05:05:00,SystemResetWarning,0829.4,5.00,000.00,026.6,025.8,000.0,034.9,028.4,009.5,0000.0,0001.92,0003.85,0001.60
2024-05-22 05:06:00,SystemResetWarning,0829.5,5.00,000.00,026.6,025.8,000.0,034.9,028.4,009.5,0000.0,0001.92,0003.81,0001.61
2024-05-22 05:07:00,SystemResetWarning,0829.5,5.01,000.00,026.6,025.8,000.0,034.9,028.4,009.4,0000.0,0001.94,0003.83,0001.62
2024-05-22 05:08:00,SystemResetWarning,0829.5,5.00,000.00,026.6,025.8,000.0,034.9,028.4,009.4,0000.0,0001.96,0003.88,0001.63
2024-05-22 05:09:00,SystemResetWarning,0829.5,5.00,000.00,026.6,025.8,000.0,034.9,028.4,009.6,0000.0,0001.97,0003.89,0001.63
2024-05-22 05:10:00,SystemResetWarning,0829.6,5.00,000.00,026.6,025.8,000.0,034.9,028.4,009.4,0000.0,0001.99,0003.94,0001.65
2024-05-22 05:11:00,SystemResetWarning,0829.5,5.00,000.00,026.6,025.8,000.0,034.9,028.4,009.5,0000.0,0002.01,0004.46,0001.67
2024-05-22 05:12:00,SystemResetWarning,0829.4,5.00,000.00,026.6,025.8,000.0,034.9,028.4,009.4,0000.0,0002.02,0005.33,0001.67
2024-05-22 05:13:00,SystemResetWarning,0829.5,5.00,000.00,026.6,025.8,000.0,034.9,028.4,009.4,0000.0,0002.00,0005.18,0001.68
2024-05-22 05:14:00,SystemResetWarning,0829.5,5.00,000.00,026.6,025.8,000.0,034.9,028.4,009.5,0000.0,0002.07,0005.35,0001.70
2024-05-22 05:15:00,SystemResetWarning,0829.5,5.01,000.00,026.6,025.8,000.0,034.9,028.4,009.5,0000.0,0002.06,0005.49,0001.70
2024-05-22 05:16:00,SystemResetWarning,0829.5,5.00,000.00,026.6,025.8,000.0,034.9,028.4,009.3,0000.0,0002.03,0004.21,0001.69
2024-05-22 05:17:00,SystemResetWarning,0829.5,5.01,000.00,026.6,025.8,000.0,034.9,028.4,009.3,0000.0,0002.05,0004.24,0001.69
2024-05-22 05:18:00,SystemResetWarning,0829.5,5.01,000.00,026.6,025.8,000.0,034.9,028.4,009.5,0000.0,0002.03,0004.18,0001.68
2024-05-22 05:19:00,SystemResetWarning,0829.5,5.00,000.00,026.6,025.8,000.0,034.9,028.4,009.8,0000.0,0002.02,0004.18,0001.67
2024-05-22 05:20:00,SystemResetWarning,0829.4,5.00,000.00,026.6,025.8,000.0,034.9,028.4,009.8,0000.0,0002.01,0004.17,0001.66
2024-05-22 05:21:00,SystemResetWarning,0829.5,4.99,000.00,026.6,025.8,000.0,034.9,028.4,009.7,0000.0,0001.99,0004.12,0001.64
2024-05-22 05:22:00,SystemResetWarning,0829.5,4.99,000.00,026.6,025.8,000.0,034.9,028.4,009.4,0000.0,0001.96,0004.02,0001.63
2024-05-22 05:23:00,SystemResetWarning,0829.4,5.00,000.00,026.6,025.8,000.0,034.9,028.4,009.4,0000.0,0001.96,0002.66,0001.63
2024-05-22 05:24:00,SystemResetWarning,0829.5,5.02,000.00,026.6,025.8,000.0,034.9,028.4,009.4,0000.0,0001.95,0002.61,0001.63
2024-05-22 05:25:00,SystemResetWarning,0829.5,5.00,000.00,026.6,025.8,000.0,034.9,028.4,009.4,0000.0,0001.90,0002.45,0001.64
2024-05-22 05:26:00,SystemResetWarning,0829.4,5.00,000.00,026.6,025.8,000.0,034.9,028.4,009.3,0000.0,0001.89,0002.32,0001.64
2024-05-22 05:27:00,SystemResetWarning,0829.3,5.01,000.00,026.6,025.8,000.0,034.9,028.4,009.3,0000.0,0001.90,0002.33,0001.64
2024-05-22 05:28:00,SystemResetWarning,0829.4,5.00,000.00,026.6,025.8,000.0,034.9,028.4,009.3,0000.0,0001.89,0002.30,0001.65
2024-05-22 05:29:00,SystemResetWarning,0829.4,5.00,000.00,026.6,025.8,000.0,034.9,028.4,009.3,0000.0,0001.89,0002.28,0001.66
2024-05-22 05:30:00,SystemResetWarning,0829.5,4.99,000.00,026.6,025.8,000.0,034.9,028.4,009.3,0000.0,0001.89,0002.26,0001.67
2024-05-22 05:31:00,SystemResetWarning,0829.4,5.00,000.00,026.6,025.8,000.0,034.9,028.4,009.3,0000.0,0001.89,0002.73,0001.68
2024-05-22 05:32:00,SystemResetWarning,0829.4,4.99,000.00,026.6,025.8,000.0,034.9,028.4,009.3,0000.0,0001.88,0003.40,0001.69
2024-05-22 05:33:00,SystemResetWarning,0829.4,5.00,000.00,026.6,025.8,000.0,034.9,028.4,009.4,0000.0,0001.87,0003.39,0001.68
2024-05-22 05:34:00,SystemResetWarning,0829.4,5.00,000.00,026.6,025.8,000.0,034.9,028.4,009.4,0000.0,0001.88,0003.48,0001.68
2024-05-22 05:35:00,SystemResetWarning,0829.4,5.00,000.00,026.6,025.8,000.0,034.9,028.4,009.6,0000.0,0001.93,0003.61,0001.69
2024-05-22 05:36:00,SystemResetWarning,0829.4,5.01,000.00,026.6,025.8,000.0,034.9,028.4,009.6,0000.0,0001.93,0003.64,0001.68
2024-05-22 05:37:00,SystemResetWarning,0829.3,5.00,000.00,026.6,025.8,000.0,034.9,028.4,009.5,0000.0,0001.90,0003.57,0001.67
2024-05-22 05:38:00,SystemResetWarning,0829.3,5.00,000.00,026.6,025.8,000.0,034.9,028.4,009.6,0000.0,0001.88,0003.54,0001.67
2024-05-22 05:39:00,SystemResetWarning,0829.3,5.00,000.00,026.6,025.8,000.0,034.9,028.4,009.7,0000.0,0001.86,0003.50,0001.65
2024-05-22 05:40:00,SystemResetWarning,0829.3,5.00,000.00,026.6,025.8,000.0,034.9,028.4,009.6,0000.0,0001.89,0003.61,0001.65
2024-05-22 05:41:00,SystemResetWarning,0829.3,5.01,000.00,026.6,025.8,000.0,034.9,028.4,009.7,0000.0,0001.92,0003.84,0001.63
2024-05-22 05:42:00,SystemResetWarning,0829.3,5.00,000.00,026.6,025.8,000.0,034.9,028.4,009.8,0000.0,0001.92,0003.54,0001.64
2024-05-22 05:43:00,SystemResetWarning,0829.2,4.99,000.00,026.6,025.8,000.0,034.9,028.3,009.7,0000.0,0001.95,0003.05,0001.65
2024-05-22 05:44:00,SystemResetWarning,0829.3,5.00,000.00,026.6,025.8,000.0,034.9,028.3,009.6,0000.0,0001.96,0003.12,0001.65
2024-05-22 05:45:00,SystemResetWarning,0829.2,5.00,000.00,026.5,025.8,000.0,034.9,028.3,009.9,0000.0,0001.99,0003.30,0001.65
2024-05-22 05:46:00,SystemResetWarning,0829.2,5.02,000.00,026.5,025.8,000.0,034.9,028.3,010.0,0000.0,0001.99,0003.57,0001.64
2024-05-22 05:47:00,SystemResetWarning,0829.2,5.00,000.00,026.5,025.8,000.0,034.9,028.3,009.9,0000.0,0001.99,0003.57,0001.63
2024-05-22 05:48:00,SystemResetWarning,0829.2,4.99,000.00,026.5,025.8,000.0,034.9,028.3,010.2,0000.0,0002.01,0003.60,0001.65
2024-05-22 05:49:00,SystemResetWarning,0829.2,4.98,000.00,026.5,025.7,000.0,034.8,028.3,010.2,0000.0,0002.04,0003.66,0001.66
2024-05-22 05:50:00,SystemResetWarning,0829.2,5.00,000.00,026.5,025.7,000.0,034.8,028.3,010.1,0000.0,0002.07,0003.73,0001.67
2024-05-22 05:51:00,SystemResetWarning,0829.3,5.00,000.00,026.5,025.7,000.0,034.8,028.3,010.0,0000.0,0002.06,0003.86,0001.67
2024-05-22 05:52:00,SystemResetWarning,0829.3,5.01,000.00,026.5,025.7,000.0,034.8,028.3,010.0,0000.0,0002.04,0003.71,0001.67
2024-05-22 05:53:00,SystemResetWarning,0829.2,5.00,000.00,026.5,025.7,000.0,034.8,028.2,009.7,0000.0,0002.06,0003.71,0001.66
2024-05-22 05:54:00,SystemResetWarning,0829.3,4.99,000.00,026.5,025.7,000.0,034.8,028.2,009.7,0000.0,0002.05,0003.44,0001.65
2024-05-22 05:55:00,SystemResetWarning,0829.3,4.99,000.00,026.5,025.6,000.0,034.8,028.2,009.7,0000.0,0002.05,0003.37,0001.65
2024-05-22 05:56:00,SystemResetWarning,0829.3,5.00,000.00,026.4,025.6,000.0,034.8,028.2,009.8,0000.0,0002.08,0003.35,0001.67
2024-05-22 05:57:00,SystemResetWarning,0829.3,5.00,000.00,026.4,025.6,000.0,034.8,028.1,010.2,0000.0,0002.06,0002.96,0001.68
2024-05-22 05:58:00,SystemResetWarning,0829.3,5.01,000.00,026.4,025.6,000.0,034.8,028.1,010.2,0000.0,0002.08,0003.04,0001.68
2024-05-22 05:59:00,SystemResetWarning,0829.3,5.00,000.00,026.4,025.6,000.0,034.8,028.1,010.0,0000.0,0002.09,0003.12,0001.67
